Theta_e
300 300 300 300 300 300 301 301 301 301 301 301 302 305 306 309 309 309 309 309 309 309 310 311 311 312 312 312 312 312 313 314 314 314 314 314 314 313 311 313 312 312 311 310 309
300 300 300 300 300 300 300 301 301 301 301 301 302 305 307 309 309 309 308 309 308 308 309 312 311 311 313 313 312 313 313 314 313 314 314 314 313 313 313 313 313 312 311 309 308
300 300 300 300 300 300 301 301 301 301 301 301 302 305 309 310 310 308 308 308 308 308 309 312 313 312 314 313 313 312 313 313 313 314 313 313 313 312 313 314 311 310 309 308 308
300 300 300 300 300 301 300 301 301 301 301 301 302 304 307 310 314 308 308 308 308 308 308 310 312 314 314 314 312 314 313 313 313 312 313 313 312 312 312 311 308 308 307 307 308
300 300 300 300 300 301 301 301 301 301 301 301 302 305 308 308 308 308 308 308 308 308 309 310 312 312 314 313 313 314 313 313 312 312 312 311 312 312 312 308 308 307 307 307 307
300 300 300 300 300 300 301 301 301 301 301 301 302 304 309 310 308 308 308 308 308 309 310 310 310 311 313 313 314 313 313 312 312 312 312 312 312 311 311 308 308 307 307 307 307
300 300 300 300 300 300 300 301 302 302 301 301 302 305 308 309 308 307 308 308 309 310 311 310 311 313 313 314 312 311 314 312 312 312 313 311 313 313 308 308 308 307 307 307 306
304 300 300 300 300 300 300 301 302 302 302 302 303 305 307 308 307 307 308 308 310 310 311 311 312 312 313 310 310 313 312 314 312 312 312 311 314 311 308 308 308 307 306 306 306
307 301 300 300 300 300 300 301 302 303 303 304 304 304 309 307 308 307 307 308 310 311 312 311 309 311 311 313 314 312 314 313 312 311 312 313 314 310 308 308 308 307 307 305 306
308 305 302 301 300 300 300 300 302 304 306 305 305 307 307 308 306 307 308 308 310 311 311 312 309 312 312 312 322 317 314 312 312 311 312 313 314 312 308 307 308 307 306 306 305
311 309 305 303 301 300 300 300 304 305 305 307 307 307 307 308 307 307 308 310 311 310 312 310 313 316 313 312 311 312 313 313 311 310 311 313 313 313 308 308 308 307 306 305 305
315 311 309 305 302 300 300 301 302 302 302 301 304 306 307 307 308 309 308 310 310 312 309 312 314 309 311 311 312 312 313 313 310 309 310 313 314 312 308 308 307 306 305 304 303
318 316 312 307 302 301 299 300 301 300 301 302 304 304 305 305 307 309 309 309 310 311 310 311 311 308 308 309 311 311 314 312 311 310 310 311 314 311 309 307 307 306 305 303 302
318 316 314 311 304 303 299 299 301 300 313 309 306 307 306 307 309 309 309 310 309 310 309 310 308 308 308 308 309 309 308 309 311 312 317 310 326 308 309 308 307 306 305 303 300
318 316 314 312 308 300 300 300 301 304 326 307 305 306 307 307 308 308 308 308 310 310 307 310 308 308 309 308 308 307 308 310 310 312 313 313 316 318 305 310 309 307 304 301 299
318 316 315 312 309 304 301 300 303 316 321 309 305 307 307 307 308 307 308 308 308 309 308 308 306 307 308 307 307 307 309 308 310 313 316 310 312 321 313 311 309 306 304 300 298
319 317 315 313 312 305 301 302 310 319 309 311 307 306 306 308 308 308 309 309 310 312 310 309 309 307 306 308 308 309 309 316 317 315 317 308 310 318 309 307 308 307 303 300 298
319 315 313 312 310 304 303 304 310 312 311 305 306 306 307 308 308 308 309 310 308 307 311 313 313 309 307 308 308 309 309 310 315 312 311 306 312 314 307 305 306 305 301 299 298
316 312 311 310 307 303 304 306 312 308 309 307 305 308 309 307 308 308 309 309 309 308 311 310 309 306 305 306 306 309 310 306 308 304 312 310 309 308 306 306 305 305 301 300 299
313 311 308 309 303 302 303 309 306 303 304 306 315 310 311 308 308 309 309 307 308 307 305 308 311 306 306 306 306 307 307 310 310 313 312 309 307 311 309 308 307 304 302 300 298
313 307 306 306 301 300 304 305 304 300 305 307 311 308 308 307 309 308 309 307 307 306 306 307 308 307 306 308 310 308 309 308 307 309 309 310 312 309 310 309 309 306 303 300 299
308 303 304 303 300 300 302 302 300 300 303 304 305 306 307 307 308 308 309 306 306 306 308 306 307 310 308 304 303 306 308 307 309 308 309 309 310 305 307 307 307 307 304 299 298
306 301 301 302 306 301 299 300 297 300 303 304 305 305 303 306 309 307 306 303 305 307 308 306 308 310 308 304 304 307 307 307 306 306 309 311 312 304 304 304 305 306 303 299 298
303 299 298 298 301 305 303 304 302 298 302 303 304 303 303 305 303 306 305 304 304 305 305 304 305 310 317 309 306 307 307 308 308 310 309 308 309 305 306 306 305 304 301 299 299
300 300 299 301 300 301 303 302 304 301 298 302 302 304 305 305 304 305 305 304 304 305 303 305 308 303 303 303 305 306 307 307 308 309 308 311 308 309 308 307 306 305 301 299 299
299 299 299 300 301 301 302 303 305 303 299 302 303 304 305 307 308 305 305 305 307 305 305 303 308 302 304 300 302 303 304 306 307 308 309 308 308 308 306 306 305 303 300 298 299
298 300 301 303 302 302 304 306 305 304 299 302 303 303 304 306 305 304 304 303 305 306 306 304 303 304 310 296 297 305 301 304 305 306 307 308 309 306 306 304 304 303 301 300 299
Wind_Speed
4 5 6 7 7 7 7 6 6 5 5 5 4 4 2 1 5 4 6 5 5 5 4 4 5 5 5 5 4 3 2 2 3 3 3 3 4 3 4 4 2 6 7 14 23
3 5 5 6 6 6 6 6 6 6 6 4 4 3 2 1 2 7 5 7 6 6 3 5 4 4 3 3 3 1 1 3 2 2 1 3 2 4 4 5 3 8 13 18 21
4 4 5 6 7 7 6 6 6 6 5 4 3 2 2 2 2 3 5 5 5 5 3 4 4 3 4 4 5 3 2 5 3 2 1 1 1 2 5 0 7 16 21 20 20
6 4 4 5 6 8 8 7 7 7 6 4 3 2 1 2 1 2 4 5 5 5 2 5 4 3 3 2 3 4 4 3 3 1 1 2 3 1 6 4 10 12 15 18 20
7 6 5 4 6 7 8 8 8 7 6 4 3 1 2 2 2 2 4 5 5 4 3 4 5 4 4 4 3 5 5 4 3 2 4 3 2 2 2 8 10 12 14 17 18
9 7 6 6 5 6 8 8 9 7 5 3 3 1 1 1 2 2 3 4 4 4 5 5 5 10 8 3 2 4 6 6 3 2 1 5 2 3 1 10 12 13 14 15 17
10 8 7 7 6 5 7 9 9 8 6 4 2 0 1 3 2 2 2 3 5 6 8 11 9 3 7 7 5 7 5 2 1 2 2 2 4 3 5 10 14 15 16 18 18
10 10 8 7 9 6 6 7 8 8 6 4 2 1 2 6 3 1 1 3 5 7 10 12 11 10 4 10 4 2 2 3 3 2 1 3 1 3 5 11 13 17 18 19 21
11 9 9 7 8 7 6 7 8 8 6 5 3 2 1 6 4 2 2 3 4 5 7 7 5 6 4 4 3 1 3 3 1 1 2 2 4 4 4 8 12 15 17 17 20
10 9 9 7 7 7 6 8 8 8 5 3 3 3 5 4 5 3 2 3 3 6 4 1 3 3 3 3 2 4 3 2 4 2 2 6 9 2 4 6 8 10 12 16 20
11 9 8 8 6 5 4 4 3 2 2 3 3 1 6 6 5 3 4 4 4 2 3 1 3 4 5 1 2 4 2 1 2 0 5 4 9 7 4 4 6 7 11 14 16
15 10 10 8 5 3 3 1 2 2 4 6 7 5 5 6 3 5 5 4 3 3 2 3 4 5 7 5 3 2 1 2 4 3 3 7 13 9 8 5 5 8 11 13 14
17 14 11 8 4 2 1 1 1 3 3 2 4 4 4 7 3 6 5 5 2 4 4 3 5 9 4 5 4 3 2 2 3 6 2 10 5 5 6 10 9 11 10 10 13
20 17 14 10 6 4 4 3 1 3 2 3 2 2 5 5 2 5 5 3 2 5 4 2 5 5 4 3 4 3 4 3 1 6 4 4 4 4 6 8 9 10 9 11 13
24 20 17 14 6 7 3 3 2 3 4 4 3 5 6 4 7 3 4 2 3 5 3 3 8 6 4 1 4 2 3 1 1 2 5 2 2 1 2 6 8 7 6 8 11
29 24 21 17 13 11 9 5 4 4 7 3 3 4 4 2 3 4 2 3 3 2 2 2 0 2 1 3 1 6 3 2 1 2 3 2 2 3 5 5 3 5 5 6 9
31 29 25 21 16 17 16 9 4 4 2 4 3 4 3 4 4 4 5 5 5 5 6 2 3 1 2 3 2 3 3 1 2 2 2 3 3 7 5 7 5 4 5 6 7
34 34 29 25 16 20 22 5 5 3 5 3 4 4 4 6 3 5 4 5 7 3 3 6 4 7 5 2 2 5 2 2 4 2 2 2 6 2 2 4 6 6 6 5 6
40 36 32 27 20 26 20 3 9 7 6 12 5 4 4 4 3 5 7 5 7 14 6 5 2 2 1 1 1 4 4 2 2 1 3 3 5 8 5 7 9 10 9 7 5
43 38 36 30 26 30 2 5 5 3 7 3 8 8 9 7 8 8 9 4 5 10 1 5 3 1 3 2 3 4 5 2 1 3 4 4 5 6 8 14 12 12 13 8 5
42 20 27 33 31 21 4 7 6 8 7 6 6 6 4 7 7 6 4 3 4 7 3 5 1 3 2 8 8 4 3 2 2 3 2 3 4 4 9 11 15 16 14 10 6
27 5 38 44 9 7 5 7 9 6 9 2 3 3 8 9 8 7 9 4 12 14 8 5 3 5 4 1 1 1 4 8 4 4 2 2 7 5 6 6 13 16 15 13 9
15 9 47 45 8 6 2 5 5 6 7 8 9 4 4 5 2 9 6 1 12 10 9 8 3 2 1 2 3 6 7 5 3 1 7 4 4 3 4 7 11 15 17 17 13
10 4 12 19 12 13 9 7 7 11 5 6 4 6 5 4 5 4 5 2 4 6 3 7 3 4 3 3 4 5 11 15 11 4 4 10 4 6 10 11 13 17 18 18 18
9 6 11 11 16 5 15 15 12 9 5 12 5 6 10 6 7 7 2 2 1 2 3 2 4 3 4 3 3 4 7 15 19 17 10 4 11 12 14 16 21 21 18 20 21
5 6 11 3 27 17 15 17 22 12 11 7 8 19 12 11 10 9 8 4 5 5 5 3 2 1 4 2 5 6 15 14 20 20 23 22 30 20 24 17 16 21 23 23 24
10 13 8 12 15 18 20 21 25 18 17 11 21 10 15 13 16 14 14 3 4 9 11 7 6 4 3 3 3 8 14 24 18 14 23 18 21 5 4 16 22 23 26 30 29
Wind_Direction
7 13 15 11 14 14 18 17 14 27 32 32 44 52 103 71 51 66 55 50 40 35 65 106 116 111 109 86 85 101 209 166 134 179 116 15 349 14 339 328 24 13 5 319 323
342 356 5 6 3 8 8 9 10 8 9 28 51 59 81 119 115 57 51 39 26 27 58 134 131 122 62 48 25 27 241 94 78 77 37 8 337 334 312 336 319 332 322 328 331
305 339 346 356 356 354 357 0 0 357 358 13 41 68 93 136 134 31 35 32 30 19 74 136 130 99 77 40 20 33 71 127 136 58 13 4 299 353 320 314 355 327 323 329 331
285 304 326 340 349 348 345 348 351 351 352 360 18 37 97 118 259 37 35 27 29 39 109 146 146 77 67 81 39 109 92 99 123 102 115 351 318 70 51 357 321 317 322 327 327
269 284 299 322 337 341 338 339 342 347 349 357 357 27 121 75 110 55 41 33 34 40 119 142 132 118 115 113 95 93 135 110 111 124 60 3 27 207 91 348 334 330 327 325 327
263 269 282 298 319 332 334 333 334 337 345 351 355 12 103 213 124 57 45 43 53 66 90 154 138 124 104 82 35 111 131 120 72 55 125 356 111 186 322 339 339 333 333 332 332
264 263 272 289 298 312 325 328 329 328 328 332 332 15 90 160 165 80 76 62 70 84 104 111 123 131 127 118 115 121 134 144 176 355 214 339 203 212 330 334 339 344 341 340 344
290 269 269 285 287 289 309 318 320 318 314 310 295 237 164 169 157 107 84 76 83 114 106 103 104 97 69 120 92 133 172 217 159 322 174 320 303 163 342 335 347 354 351 348 345
299 268 265 281 288 291 303 311 312 305 299 295 262 185 175 184 181 154 118 133 111 116 120 115 106 91 109 147 141 158 233 222 216 155 314 308 307 177 325 338 357 0 0 358 353
292 281 263 257 272 295 309 314 311 296 287 270 210 152 180 188 173 165 145 149 147 136 106 111 86 127 130 196 239 183 203 230 271 143 261 290 264 245 301 346 347 359 1 8 8
263 282 274 262 264 285 307 328 343 301 263 227 192 182 159 169 178 194 171 150 141 149 201 45 213 171 128 93 75 111 144 252 259 324 310 253 273 299 228 281 341 343 337 344 355
257 257 281 272 269 266 327 42 316 289 299 252 232 215 186 191 179 192 182 170 188 181 166 175 196 140 128 127 119 135 164 256 277 243 295 288 283 275 218 264 283 307 314 326 331
252 251 247 283 258 258 211 256 320 340 270 280 201 187 191 198 205 185 186 163 171 164 202 227 114 148 153 157 179 186 203 201 291 325 250 306 263 206 223 251 269 277 293 317 335
247 246 244 242 253 225 219 145 332 6 339 174 192 210 164 166 183 170 177 161 140 174 156 116 139 169 167 197 203 240 189 176 314 331 299 349 294 232 226 256 261 276 301 323 339
245 239 234 235 204 176 165 153 91 43 310 79 148 158 160 175 140 168 159 146 188 148 198 120 166 170 196 220 188 81 150 166 347 285 304 172 256 192 213 255 239 244 283 319 339
243 230 230 225 213 182 139 116 110 56 248 149 133 178 155 144 160 136 135 125 116 116 47 96 138 223 74 102 74 133 140 94 88 267 251 117 320 238 198 201 191 221 271 311 342
247 232 225 224 221 182 143 116 51 207 125 182 187 182 200 154 163 191 176 178 180 155 193 162 188 160 174 149 136 196 210 305 256 220 280 148 248 269 224 213 207 218 258 299 335
253 221 214 219 216 182 149 79 172 236 205 123 127 125 205 164 169 175 174 222 225 210 155 192 214 185 169 244 235 192 245 237 273 274 329 142 235 255 238 220 218 234 255 277 316
231 202 202 204 197 170 149 150 203 200 152 156 123 161 215 200 188 180 213 235 209 193 208 170 164 107 57 136 277 159 205 50 107 83 278 216 249 246 201 210 221 228 247 254 281
205 192 194 191 178 165 141 232 237 208 128 174 181 181 188 188 177 195 191 208 201 194 174 179 132 220 133 137 70 268 141 134 209 241 256 228 266 246 209 217 214 224 231 235 250
202 172 193 180 163 154 203 221 225 213 166 168 189 143 198 176 197 195 206 219 192 161 150 156 206 142 174 206 185 160 208 191 299 244 259 292 243 199 195 197 199 208 218 218 213
182 156 172 170 145 194 191 187 193 180 186 151 128 125 180 164 194 220 226 234 174 153 172 179 130 179 185 102 313 253 234 191 224 195 243 323 270 171 202 202 199 195 201 207 208
187 136 167 172 187 201 175 169 207 152 184 170 196 198 169 149 228 212 204 6 179 172 157 181 205 145 188 182 186 220 199 204 120 115 208 186 250 166 214 215 203 195 194 197 201
172 132 165 209 217 206 182 188 183 209 195 174 168 135 128 148 145 272 214 27 210 195 179 156 189 232 214 95 123 200 199 199 197 193 196 232 259 216 218 211 197 200 196 197 196
216 193 183 193 218 187 186 169 188 186 208 184 193 204 170 158 162 188 153 86 348 211 121 217 234 216 247 203 194 223 208 199 210 214 216 246 237 241 215 209 204 201 192 196 198
238 181 187 251 199 189 190 200 195 174 159 198 217 192 194 195 186 176 137 193 199 172 178 190 242 169 277 240 232 256 237 226 226 233 247 259 278 264 244 230 201 196 191 199 203
249 242 192 193 186 184 206 197 199 177 210 212 206 171 204 214 161 135 137 243 209 176 183 166 159 173 251 340 303 270 224 211 216 219 224 234 241 217 187 213 216 203 198 203 206